Findlay, OH

10:02 AM EST on December 12, 2019 (GMT -0500)
Findlay

Weather History for KFDY - October, 2019

Change the Weather History Date:

Tuesday, October 1, 2019

  Actual Average Record
Temperature  
Mean Temperature 80 °F -  
Max Temperature 91 °F 69 °F 87 °F (1952)
Min Temperature 69 °F 48 °F 33 °F (2003)
Cooling Degree Days 15    
Growing Degree Days 30 (Base 50)    
Moisture  
Dew Point 66 °F    
Average Humidity 67    
Maximum Humidity 84    
Minimum Humidity 42    
Precipitation  
Precipitation 0.00 in - - ()
Sea Level Pressure  
Sea Level Pressure 29.96 in    
Wind  
Wind Speed 8 mph (SSW)    
Max Wind Speed 17 mph    
Max Gust Speed 24 mph    
Visibility 10 miles    
Events      
Averages and records for this station are not official NWS values.
T = Trace of Precipitation, MM = Missing Value Source: NWS Daily Summary

Daily Weather History Graph

Daily Weather History Graph

Search for Another Location

Airport or City:

Astronomy

Oct. 01, 2019 Rise Set
Actual Time 7:31 AM EDT 7:17 PM EDT
Civil Twilight 7:03 AM EDT 7:44 PM EDT
Nautical Twilight 6:31 AM EDT 8:16 PM EDT
Astronomical Twilight 5:59 AM EDT 8:48 PM EDT
Moon 10:47 AM EDT (10/1) 9:27 PM EDT (10/1)
Length of Visible Light 12h 40m
Length of Day
11h 45m
Waxing Crescent, 12% of the Moon is Illuminated
Oct 1
Waxing Crescent
Oct 5
First Quarter
Oct 13
Full
Oct 21
Last Quarter
Oct 27
New

Hourly Weather History & Observations

Time (EDT) Temp. Heat Index Dew Point Humidity Pressure Visibility Wind Dir Wind Speed Gust Speed Precip Events Conditions
12:53 AM 71.1 °F - 64.9 °F 81% 29.99 in 10.0 mi South 6.9 mph - N/A   Clear
1:53 AM 71.1 °F - 64.9 °F 81% 29.97 in 10.0 mi SSW 6.9 mph - N/A   Clear
2:53 AM 72.0 °F - 64.9 °F 78% 29.98 in 10.0 mi SSW 4.6 mph - N/A   Clear
3:53 AM 72.0 °F - 64.9 °F 78% 29.99 in 10.0 mi SSE 4.6 mph - N/A   Clear
4:53 AM 70.0 °F - 64.0 °F 81% 30.00 in 10.0 mi South 5.8 mph - N/A   Clear
5:53 AM 70.0 °F - 64.0 °F 81% 30.00 in 10.0 mi South 6.9 mph - N/A   Clear
6:53 AM 69.1 °F - 64.0 °F 84% 30.00 in 10.0 mi South 5.8 mph - N/A   Clear
7:53 AM 70.0 °F - 64.9 °F 84% 30.01 in 10.0 mi South 5.8 mph - N/A   Scattered Clouds
8:53 AM 73.9 °F - 66.9 °F 79% 30.01 in 10.0 mi South 5.8 mph - N/A   Clear
9:53 AM 80.1 °F 82.7 °F 68.0 °F 67% 30.01 in 10.0 mi WSW 9.2 mph - N/A   Clear
10:53 AM 84.0 °F 87.8 °F 69.1 °F 61% 30.00 in 10.0 mi WSW 11.5 mph - N/A   Scattered Clouds
11:53 AM 87.1 °F 92.0 °F 70.0 °F 57% 29.99 in 10.0 mi WSW 16.1 mph - N/A   Partly Cloudy
12:53 PM 91.0 °F 95.6 °F 69.1 °F 48% 29.98 in 10.0 mi West 17.3 mph 24.2 mph N/A   Clear
1:53 PM 90.0 °F 92.4 °F 66.0 °F 45% 29.97 in 10.0 mi WSW 11.5 mph 21.9 mph N/A   Mostly Cloudy
2:53 PM 91.9 °F 94.5 °F 66.0 °F 42% 29.96 in 10.0 mi SW 17.3 mph 21.9 mph N/A   Clear
3:53 PM 90.0 °F 92.8 °F 66.9 °F 46% 29.95 in 10.0 mi WSW 15.0 mph - N/A   Partly Cloudy
4:53 PM 90.0 °F 92.4 °F 66.0 °F 45% 29.94 in 10.0 mi WSW 13.8 mph - N/A   Clear
5:53 PM 88.0 °F 90.7 °F 66.9 °F 49% 29.94 in 10.0 mi WSW 9.2 mph - N/A   Clear
6:53 PM 84.9 °F 88.2 °F 68.0 °F 57% 29.94 in 10.0 mi WSW 4.6 mph - N/A   Mostly Cloudy
7:53 PM 80.1 °F 82.7 °F 68.0 °F 67% 29.93 in 10.0 mi South 5.8 mph - N/A   Clear
8:53 PM 77.0 °F - 66.9 °F 71% 29.91 in 10.0 mi South 8.1 mph - N/A   Clear
9:53 PM 75.9 °F - 66.0 °F 71% 29.90 in 10.0 mi South 9.2 mph - N/A   Clear
10:53 PM 73.9 °F - 66.0 °F 76% 29.89 in 10.0 mi SSW 8.1 mph - N/A   Clear
11:53 PM 73.0 °F - 64.9 °F 76% 29.89 in 10.0 mi SSW 9.2 mph - N/A   Clear